User: anonymous   Login
Location: Mentone
(34.5413°N, 85.5351°W)
Time: 19:18:11
(UTC-05:00)
Language:

Centaur AC-72 - Orbit

View from above orbital plane
View from above orbital plane
View from above satellite
View from above satellite

Ground track
Ground track

The orbit data is extracted from the following two-line orbital elements,

1 21907U 92013B   15185.08509818 -.00000006  00000-0  00000+0 0  9999
2 21907 018.8923 137.3083 6963596 096.5159 359.3874 02.25607582192161
Epoch (UTC): 04 July 2015 02:02:32
Eccentricity: 0.6963596
inclination: 18.8923°
perigee height: 1078 km
apogee height: 35278 km
right ascension of ascending node: 137.3083°
argument of perigee: 96.5159°
revolutions per day: 2.25607582
mean anomaly at epoch: 359.3874°
orbit number at epoch: 19216

The dashed part of the orbit path shows where the satellite is in the earth's shadow,  

DLR